Regional Weather Roundup
Issued by NWS Goodland, KS

Home | Current Version | Previous Version | Graphics & Text | Print | Product List | Glossary On
Versions: 1 2 3 4 5 6 7 8 9 10 11 12 13 14 15 16 17 18 19 20 21 22 23 24 25 26 27 28 29 30 31 32 33 34 35 36 37 38 39 40 41 42 43 44 45 46 47 48 49 50
000
ASUS43 KGLD 272008
RWRGLD

GOODLAND FORECAST AREA HOURLY WEATHER ROUNDUP
NATIONAL WEATHER SERVICE GOODLAND KS
100 PM MST TUE JAN 27 2015

...OFFICIAL OBSERVATIONS...

CITY           SKY/WX    TMP DP  RH WIND       PRES   REMARKS
GOODLAND KS    SUNNY     79  21  11 SW16      30.03F
HILL CITY KS   SUNNY     78  30  17 VRB6      29.98F
IMPERIAL NEB   SUNNY     73  27  18 W7        30.00F
MCCOOK NEB     SUNNY     69  32  25 W8        29.98F
AKRON CO       SUNNY     69  27  20 CALM      30.06F
BURLINGTON CO  SUNNY     73  29  19 SW14      30.07F
LIMON CO       MOSUNNY   70  15  12 SW17      30.10F
$$

...UNOFFICIAL OBSERVATIONS...

CITY           SKY/WX    TMP DP  RH WIND       PRES   REMARKS
COLBY KS       SUNNY     82  36  18 SW18      30.01F
GOVE KS          N/A     82  32  16 MISG        N/A
NORTON KS      SUNNY     73  25  16 W6        29.98F
SHARON SPRINGS   N/A     78  27  15 SW15        N/A
KIT CARSON CO    N/A     73  27  18 MISG        N/A
YUMA CO          N/A     75  24  15 CALM        N/A
$$


USA.gov is the U.S. government's official web portal to all federal, state and local government web resources and services.